Location: Ellerstadt
(49.4644°N, 8.2615°E)
Time: 04:17:23
(UTC+00:00)

Terra - Pass Details

Date: 03 March 2021
Orbit: 701 x 703 km, 98.2° (Epoch: 11 April)

Event Time Altitude Azimuth Distance (km) Brightness Sun altitude
Exits shadow 19:42:42 12° 27° (NNE) 2,073 4.2 -24.7°
Drops below altitude 10° 19:43:14 10° 22° (NNE) 2,183 4.3 -24.8°
Sets 19:46:22 0° 360° (N) 3,107 5.4 -25.3°
